Location: Pedholt
(56.0260°N, 10.2097°E)
Time: 13:22:19
(UTC+00:00)

Tiros 1 - Pass Details

Date: 01 August 2021
Orbit: 630 x 663 km, 48.4° (Epoch: 23 September)

Event Time Altitude Azimuth Distance (km) Brightness Sun altitude
Rises 19:46:00 0° 250° (WSW) 2,977 11.0 -3.0°
Reaches altitude 10° 19:48:31 10° 241° (WSW) 2,061 10.1 -3.3°
Maximum altitude 19:52:45 33° 178° (S) 1,095 8.0 -3.7°
Drops below altitude 10° 19:56:57 10° 115° (ESE) 2,042 9.1 -4.2°
Enters shadow 19:58:38 - 108° (ESE) 2,643 9.7 -4.4°
Sets 19:59:26 0° 106° (ESE) 2,945 - -4.5°
